Flight Track Log - Related Links

Times and Time Zones

All times are in EST time to prevent confusion due to time zone crossing. See the DAL5880 flight status page for this flight to view local times or setup timezone preferences in your user account.

Time Position Orientation Groundspeed Altitude Reporting Facility
EST Latitude Longitude Course Direction KTS MPH feet Rate Location/Type
12:08PM 40.7333 -73.8333 90° East 159 183 2,600  Level New York TRACON
12:10PM 40.8331 -73.7278 39° Northeast 272 313 8,800 2,337 Climbing Boston Center
12:11PM 41.0079 -73.4721 48° Northeast  Level Estimated
12:11PM 40.8964 -73.6586 40° Northeast 292 336 10,000  Level Boston Center
12:12PM 41.0653 -73.3716 45° Northeast  Level Estimated
12:12PM 40.9683 -73.5828 39° Northeast 324 373 12,100  Level Boston Center
12:13PM 41.1226 -73.2708 90° East  Level Estimated
12:13PM 41.0414 -73.4597 52° Northeast 380 437 14,500  Level Boston Center
12:14PM 41.0858 -73.3336 65° Northeast 408 470 16,700 1,869 Climbing Boston Center
12:15PM 41.1308 -73.2061 65° Northeast 414 476 18,300 1,140 Climbing Boston Center
12:16PM 41.1914 -73.0286 66° East 431 496 19,000 339 Climbing Boston Center
12:17PM 41.2428 -72.8811 65° Northeast 435 501 19,000  Level Boston Center
12:18PM 41.2919 -72.7358 66° East 433 498 19,000  Level Boston Center
12:19PM 41.3411 -72.5892 66° East 437 503 19,000  Level Boston Center
12:20PM 41.3933 -72.4331 66° East 432 497 19,000  Level Boston Center
12:21PM 41.4422 -72.2889 66° East 431 496 19,000  Level Boston Center
12:22PM 41.4950 -72.1317 66° East 434 499 19,000 -439 Level Boston Center
12:23PM 41.5433 -71.9856 66° East 433 498 18,100 -1,091 Descending Boston Center
12:24PM 41.5900 -71.8419 66° East 427 491 16,800 -1,887 Descending Boston Center
12:25PM 41.6394 -71.6919 66° East 414 476 14,200 -2,098 Descending Boston Center
12:26PM 41.6822 -71.5625 66° East 391 450 12,500 -1,587 Descending Boston Center
12:27PM 41.7231 -71.4372 66° East 349 402 11,000 -726 Descending Boston Center
12:28PM 41.7644 -71.3386 61° Northeast 310 357 11,000  Level Boston Center
12:29PM 41.8233 -71.2631 44° Northeast 298 343 11,000 -836 Level Boston Center
12:30PM 41.9031 -71.2306 17° North 279 321 9,300 -1,707 Descending Boston Center
12:31PM 41.9756 -71.1961 19° North 278 320 7,500 -1,854 Descending Boston Center
12:33PM 42.0472 -71.1744 13° North 267 307 5,500 -1,736 Descending Boston Center
12:34PM 42.1194 -71.1617 North 264 304 4,000 -744 Descending Boston Center
12:35PM 42.1817 -71.1372 16° North 216 249 4,000 -496 Level Boston Center
12:36PM 42.2333 -71.1167 16° North 193 222 3,000 -800 Descending KA90
12:37PM 42.2833 -71.0833 26° Northeast 169 194 2,400 -744 Descending KA90
12:38PM 42.3167 -71.0500 36° Northeast 164 189 1,500 -992 Descending KA90
12:39PM 42.3500 -71.0167 36° Northeast 124 143 400 -1,100 Descending KA90

Login

Don't have an account? Register now (free) for customized features, flight alerts, and more!